Location: Chuathbaluk
(61.5726°N, 159.2454°W)
Time: 17:41:29
(UTC+00:00)

ZACube-1 - Pass Details

Date: 17 January 2021
Orbit: 583 x 666 km, 97.6° (Epoch: 04 March)

Event Time Altitude Azimuth Distance (km) Brightness Sun altitude
Rises 03:53:49 0° 204° (SSW) 2,926 ? -12.0°
Reaches altitude 10° 03:56:23 10° 219° (SW) 2,038 ? -12.3°
Maximum altitude 03:59:56 23° 272° (W) 1,393 ? -12.7°
Drops below altitude 10° 04:03:33 10° 325° (NW) 2,084 ? -13.1°
Sets 04:06:13 0° 340° (NNW) 3,011 ? -13.4°
